Location: Hermaringen
(48.5952°N, 10.2585°E)
Time: 15:10:27
(UTC+00:00)

Explorer 7 - Pass Details

Date: 19 February 2026
Orbit: 430 x 541 km, 50.2° (Epoch: 8 March)

Event Time Altitude Azimuth Distance (km) Brightness Sun altitude
Rises 19:19:36 0° 287° (WNW) 2,537 11.6 -25.8°
Reaches altitude 10° 19:21:51 10° 278° (W) 1,677 10.3 -26.2°
Enters shadow 19:24:28 31° 241° (WSW) 900 8.2 -26.6°
